sat.trackr.live / text

‹ back to catalog

STARLINK-11375 [DTC]

NORAD 61577 · 2024-187D

PAYLOAD ACTIVE UNKNOWN

§ Identity

Operator
Country
US
Launch date
2024-10-18
Launch site
AFETR
Launch vehicle
Mass (kg)
RCS (m²)

Purposes: comms

External: N2YO · Heavens-Above · Gunter

§ Orbital elements

Epoch: 2026-05-25T02:25:59.079072Z

Period
91.74 min
Inclination
53.1599°
Eccentricity
0.0000948
Mean motion
15.69710424 rev/d
Perigee alt
359.1 km
Apogee alt
360.4 km
Semi-major
6,737.9 km
B*
4.9397e-6
RAAN
279.4229°
Arg perigee
87.6726°
Mean anomaly
272.4400°
Rev number
9,275

§ Raw data

STARLINK-11375 [DTC]1 61577U 24187D   26145.10137823  .00000010  00000+0  49397-5 0  99982 61577  53.1599 279.4229 0000948  87.6726 272.4400 15.69710424 92753

JSON: /api/v1/satellites/61577 · /tle

For live sub-satellite position, see the globe view (requires WebGL).

§ Visibility from observer

Set your observer location to see the next 7 days of passes ≥ 10°. The values pass through the URL so the page stays shareable.

No JS? Fill the form by hand. The geolocation button needs JavaScript.